Home   Weather   United Kingdom   Wokingham   Past weeks
Flag for United Kingdom

Past Weather in Wokingham, England, United Kingdom — Yesterday and Last 2 Weeks

Currently: 52 °F. Cool. (Weather station: Farnborough Airport, United Kingdom). See more current weather

Past Weather in Wokingham — Graph

°F

Wokingham Temperature Yesterday

Maximum temperature yesterday: 61 °F (at 11:50 am)
Minimum temperature yesterday: 41 °F (at 3:50 am)
Average temperature yesterday: 52 °F

High & Low Weather Summary for the Past Weeks

 TemperatureHumidityPressure
High64 °F (May 9, 12:50 pm)100% (Apr 30, 10:20 pm)30.15 "Hg (Apr 30, 10:20 pm)
Low28 °F (May 1, 5:50 am)32% (May 6, 6:50 pm)29.39 "Hg (May 4, 12:50 am)
Average48 °F71%29.78 "Hg
* Reported Apr 27 7:20 am — May 12 7:20 am, Wokingham. Weather by CustomWeather, © 2021

Note: Actual official high and low records may vary slightly from our data, if they occured in-between our weather recording intervals... More about our weather records

Wokingham Weather History for the Previous 24 Hours

Scroll right to see more
 ConditionsComfort  
Time TempWeatherWind HumidityBarometerVisibility
7:20 am
Wed, May 12
50 °FScattered clouds.13 mph82%29.80 "HgN/A
6:50 am48 °FSunny.10 mph87%29.80 "Hg10 mi
6:20 am46 °FCool.9 mph87%29.77 "HgN/A
5:50 am46 °FPartly sunny.9 mph87%29.77 "HgN/A
5:20 am46 °FBroken clouds.9 mph87%29.77 "HgN/A
4:50 am48 °FPassing clouds.10 mph87%29.77 "HgN/A
4:20 am48 °FPassing clouds.9 mph87%29.77 "HgN/A
3:50 am48 °FPassing clouds.13 mph87%29.77 "HgN/A
3:20 am50 °FOvercast.12 mph82%29.77 "HgN/A
2:50 am50 °FPassing clouds.10 mph82%29.77 "HgN/A
2:20 am50 °FOvercast.10 mph82%29.77 "HgN/A
1:50 am50 °FOvercast.8 mph82%29.77 "HgN/A
1:20 am50 °FPassing clouds.9 mph82%29.77 "HgN/A
12:50 am48 °FPassing clouds.10 mph82%29.77 "HgN/A
12:20 am48 °FPassing clouds.12 mph82%29.77 "HgN/A
11:50 pm
Tue, May 11
48 °FPassing clouds.10 mph82%29.77 "HgN/A
11:20 pm48 °FPassing clouds.13 mph82%29.77 "HgN/A
10:50 pm50 °FPassing clouds.10 mph76%29.77 "HgN/A
10:20 pm50 °FPassing clouds.12 mph82%29.74 "HgN/A
9:50 pm50 °FPassing clouds.14 mph76%29.74 "HgN/A
9:20 pm52 °FPartly cloudy.13 mph77%29.74 "HgN/A
8:50 pm52 °FPassing clouds.12 mph72%29.74 "HgN/A
8:20 pm52 °FPassing clouds.15 mph72%29.74 "HgN/A
7:50 pm54 °FScattered clouds.18 mph67%29.74 "HgN/A
7:20 pm54 °FScattered clouds.17 mph72%29.71 "HgN/A
6:50 pm55 °FPartly sunny.20 mph63%29.71 "HgN/A
6:20 pm55 °FPartly sunny.15 mph59%29.71 "HgN/A
5:50 pm57 °FPartly sunny.16 mph55%29.71 "HgN/A
5:20 pm57 °FScattered clouds.15 mph51%29.71 "HgN/A
4:50 pm59 °FRefreshingly cool.13 mph48%29.71 "HgN/A
4:20 pm57 °FPassing clouds.16 mph55%29.74 "HgN/A
3:50 pm59 °FPassing clouds.17 mph48%29.74 "HgN/A
3:20 pm59 °FPassing clouds.15 mph51%29.74 "HgN/A
2:50 pm57 °FRefreshingly cool.14 mph51%29.74 "HgN/A
2:20 pm59 °FPassing clouds.16 mph51%29.74 "HgN/A
1:50 pm59 °FPassing clouds.17 mph51%29.74 "HgN/A
1:20 pm61 °FScattered clouds.15 mph48%29.74 "HgN/A
12:50 pm61 °FScattered clouds.15 mph52%29.74 "HgN/A
12:20 pm59 °FPassing clouds.15 mph55%29.74 "HgN/A
11:50 am61 °FPassing clouds.16 mph55%29.74 "HgN/A
11:20 am59 °FPassing clouds.14 mph59%29.74 "HgN/A
10:50 am57 °FPassing clouds.15 mph67%29.74 "HgN/A
10:20 am57 °FPassing clouds.14 mph63%29.71 "HgN/A
9:50 am57 °FPassing clouds.12 mph67%29.74 "HgN/A
9:20 am55 °FCool.9 mph72%29.74 "HgN/A
8:50 am54 °FCool.9 mph77%29.74 "HgN/A
8:20 am52 °FPassing clouds.9 mph82%29.74 "HgN/A
Weather by CustomWeather, © 2021

See weather overview